Date String (YYYY-MM-DD hh:mm:ss) UTC,Instrument flags,absolute air pressure of the measurement (hPa),sample flow rate (lpm),inlet stack bypass flow (lpm),air temperature of the measurement (°C),ambient temperature measured by the external sensor (°C),aerosol sample conditioner tube jacket temperature (°C),OPC LED temperature (°C),internal box temperature (°C),relative humidity of the measurement (%),span deviation,mass concentration of particles derived from Lorenz-Mie calculation of OPC scattering (μg/m³),mass concentration of particles derived from Lorenz-Mie calculation of OPC scattering (μg/m³),mass concentration of particles derived from Lorenz-Mie calculation of OPC scattering (μg/m³)
DateTimeUTC,F1_M11,P_M11,Q1_M11,Q2_M11,T1_M11,T2_M11,T3_M11,T4_M11,T5_M11,U1_M11,ZSPAN_M11,X0_M11,X2_M11,X1_M11
2023-09-25 13:00:00,SystemResetWarning,0836.2,5.00,000.00,027.9,026.4,000.0,036.3,029.4,10.8,0000.0,0007.96,0003.60,0003.16
2023-09-25 13:01:00,SystemResetWarning,0836.2,5.00,000.00,027.9,026.4,000.0,036.3,029.4,10.8,0000.0,0008.21,0003.58,0003.17
2023-09-25 13:02:00,SystemResetWarning,0836.3,5.00,000.00,027.9,026.4,000.0,036.3,029.4,10.9,0000.0,0008.69,0003.57,0003.18
2023-09-25 13:03:00,SystemResetWarning,0836.3,5.00,000.00,027.9,026.4,000.0,036.3,029.4,10.9,0000.0,0008.84,0003.58,0003.18
2023-09-25 13:04:00,SystemResetWarning,0836.3,5.00,000.00,027.9,026.4,000.0,036.3,029.4,10.9,0000.0,0008.76,0003.60,0003.19
2023-09-25 13:05:00,SystemResetWarning,0836.2,5.00,000.00,027.9,026.4,000.0,036.3,029.4,10.9,0000.0,0008.62,0003.62,0003.21
2023-09-25 13:06:00,SystemResetWarning,0836.2,5.00,000.00,027.9,026.4,000.0,036.3,029.4,11.0,0000.0,0008.29,0003.65,0003.22
2023-09-25 13:07:00,SystemResetWarning,0836.3,5.00,000.00,027.9,026.4,000.0,036.3,029.4,10.9,0000.0,0008.90,0003.68,0003.22
2023-09-25 13:08:00,SystemResetWarning,0836.3,5.00,000.00,027.9,026.4,000.0,036.3,029.4,10.9,0000.0,0008.83,0003.71,0003.24
2023-09-25 13:09:00,SystemResetWarning,0836.3,5.00,000.00,027.9,026.4,000.0,036.3,029.4,10.9,0000.0,0008.87,0003.74,0003.25
2023-09-25 13:10:00,SystemResetWarning,0836.2,5.01,000.00,027.9,026.4,000.0,036.3,029.4,10.9,0000.0,0008.73,0003.78,0003.25
2023-09-25 13:11:00,SystemResetWarning,0836.3,4.99,000.00,027.9,026.4,000.0,036.3,029.4,10.9,0000.0,0008.70,0003.79,0003.26
2023-09-25 13:12:00,SystemResetWarning,0836.2,5.00,000.00,027.9,026.4,000.0,036.3,029.4,10.9,0000.0,0008.50,0003.81,0003.25
2023-09-25 13:13:00,SystemResetWarning,0836.3,5.00,000.00,027.9,026.4,000.0,036.3,029.4,10.9,0000.0,0008.73,0003.79,0003.24
2023-09-25 13:14:00,SystemResetWarning,0836.2,5.00,000.00,027.9,026.4,000.0,036.3,029.4,10.8,0000.0,0008.84,0003.77,0003.23
2023-09-25 13:15:00,SystemResetWarning,0836.2,5.00,000.00,027.9,026.4,000.0,036.3,029.4,10.8,0000.0,0008.95,0003.75,0003.23
2023-09-25 13:16:00,SystemResetWarning,0836.3,5.00,000.00,027.9,026.4,000.0,036.3,029.4,10.8,0000.0,0008.92,0003.76,0003.22
2023-09-25 13:17:00,SystemResetWarning,0836.3,5.00,000.00,027.9,026.4,000.0,036.3,029.4,10.8,0000.0,0008.78,0003.73,0003.21
2023-09-25 13:18:00,SystemResetWarning,0836.2,5.00,000.00,027.9,026.4,000.0,036.3,029.4,10.8,0000.0,0008.11,0003.68,0003.19
2023-09-25 13:19:00,SystemResetWarning,0836.3,5.00,000.00,027.9,026.4,000.0,036.3,029.4,10.8,0000.0,0008.04,0003.67,0003.18
2023-09-25 13:20:00,SystemResetWarning,0836.3,5.00,000.00,027.9,026.4,000.0,036.3,029.4,10.8,0000.0,0008.09,0003.67,0003.17
2023-09-25 13:21:00,SystemResetWarning,0836.3,5.00,000.00,027.9,026.4,000.0,036.3,029.4,10.7,0000.0,0008.30,0003.65,0003.16
2023-09-25 13:22:00,SystemResetWarning,0836.2,5.00,000.00,027.9,026.4,000.0,036.3,029.4,10.7,0000.0,0009.11,0003.62,0003.15
2023-09-25 13:23:00,SystemResetWarning,0836.3,5.01,000.00,027.9,026.4,000.0,036.3,029.5,10.6,0000.0,0009.22,0003.61,0003.15
2023-09-25 13:24:00,SystemResetWarning,0836.3,5.00,000.00,027.9,026.4,000.0,036.3,029.5,10.6,0000.0,0008.66,0003.62,0003.14
2023-09-25 13:25:00,SystemResetWarning,0836.3,5.00,000.00,027.9,026.5,000.0,036.3,029.5,10.6,0000.0,0008.82,0003.65,0003.15
2023-09-25 13:26:00,SystemResetWarning,0836.4,5.00,000.00,027.9,026.5,000.0,036.3,029.5,10.7,0000.0,0008.59,0003.66,0003.14
2023-09-25 13:27:00,SystemResetWarning,0836.4,5.01,000.00,027.9,026.5,000.0,036.3,029.5,10.7,0000.0,0008.54,0003.62,0003.13
2023-09-25 13:28:00,SystemResetWarning,0836.4,5.00,000.00,027.9,026.5,000.0,036.3,029.5,10.5,0000.0,0008.47,0003.60,0003.13
2023-09-25 13:29:00,SystemResetWarning,0836.4,5.00,000.00,027.9,026.5,000.0,036.3,029.5,10.1,0000.0,0008.43,0003.60,0003.13
2023-09-25 13:30:00,SystemResetWarning,0836.4,4.99,000.00,027.9,026.5,000.0,036.3,029.5,10.0,0000.0,0008.53,0003.67,0003.15
2023-09-25 13:31:00,SystemResetWarning,0836.4,5.00,000.00,028.0,026.5,000.0,036.3,029.5,10.0,0000.0,0008.57,0003.70,0003.16
2023-09-25 13:32:00,SystemResetWarning,0836.4,4.99,000.00,028.0,026.5,000.0,036.3,029.5,10.2,0000.0,0008.70,0003.75,0003.17
2023-09-25 13:33:00,SystemResetWarning,0836.4,4.99,000.00,028.0,026.5,000.0,036.3,029.5,10.4,0000.0,0007.96,0003.78,0003.18
2023-09-25 13:34:00,SystemResetWarning,0836.4,5.00,000.00,028.0,026.5,000.0,036.3,029.5,10.5,0000.0,0007.60,0003.77,0003.17
2023-09-25 13:35:00,SystemResetWarning,0836.4,5.00,000.00,028.0,026.5,000.0,036.3,029.5,10.5,0000.0,0007.66,0003.79,0003.17
2023-09-25 13:36:00,SystemResetWarning,0836.4,5.01,000.00,028.0,026.5,000.0,036.3,029.5,10.6,0000.0,0007.34,0003.79,0003.18
2023-09-25 13:37:00,SystemResetWarning,0836.4,5.01,000.00,028.0,026.5,000.0,036.3,029.5,10.6,0000.0,0007.61,0003.80,0003.19
2023-09-25 13:38:00,SystemResetWarning,0836.4,4.99,000.00,028.0,026.5,000.0,036.3,029.5,10.8,0000.0,0007.67,0003.84,0003.21
2023-09-25 13:39:00,SystemResetWarning,0836.5,4.99,000.00,028.0,026.5,000.0,036.3,029.5,10.8,0000.0,0007.71,0003.86,0003.22
2023-09-25 13:40:00,SystemResetWarning,0836.5,5.00,000.00,028.0,026.5,000.0,036.3,029.5,10.8,0000.0,0007.71,0003.86,0003.23
2023-09-25 13:41:00,SystemResetWarning,0836.5,5.01,000.00,028.0,026.5,000.0,036.3,029.5,10.7,0000.0,0007.70,0003.83,0003.22
2023-09-25 13:42:00,SystemResetWarning,0836.5,5.01,000.00,028.0,026.5,000.0,036.3,029.6,10.7,0000.0,0007.55,0003.76,0003.21
2023-09-25 13:43:00,SystemResetWarning,0836.5,5.00,000.00,028.0,026.5,000.0,036.3,029.6,10.9,0000.0,0007.57,0003.68,0003.19
2023-09-25 13:44:00,SystemResetWarning,0836.5,4.99,000.00,028.0,026.5,000.0,036.3,029.6,11.1,0000.0,0007.67,0003.66,0003.19
2023-09-25 13:45:00,SystemResetWarning,0836.5,4.99,000.00,028.0,026.5,000.0,036.3,029.6,11.3,0000.0,0007.67,0003.66,0003.19
2023-09-25 13:46:00,SystemResetWarning,0836.5,5.00,000.00,028.0,026.6,000.0,036.3,029.6,11.6,0000.0,0007.76,0003.67,0003.19
2023-09-25 13:47:00,SystemResetWarning,0836.5,5.01,000.00,028.0,026.6,000.0,036.3,029.6,11.6,0000.0,0007.71,0003.68,0003.19
2023-09-25 13:48:00,SystemResetWarning,0836.5,5.01,000.00,028.0,026.6,000.0,036.3,029.6,11.5,0000.0,0007.25,0003.68,0003.18
2023-09-25 13:49:00,SystemResetWarning,0836.5,5.00,000.00,028.0,026.6,000.0,036.3,029.6,11.3,0000.0,0007.27,0003.68,0003.18
2023-09-25 13:50:00,SystemResetWarning,0836.5,5.00,000.00,028.0,026.6,000.0,036.4,029.6,10.9,0000.0,0007.34,0003.69,0003.18
2023-09-25 13:51:00,SystemResetWarning,0836.5,5.00,000.00,028.1,026.6,000.0,036.4,029.6,10.4,0000.0,0007.36,0003.69,0003.17
2023-09-25 13:52:00,SystemResetWarning,0836.5,5.00,000.00,028.1,026.6,000.0,036.4,029.7,10.3,0000.0,0007.26,0003.67,0003.17
2023-09-25 13:53:00,SystemResetWarning,0836.6,4.99,000.00,028.1,026.6,000.0,036.4,029.7,10.6,0000.0,0007.31,0003.69,0003.18
2023-09-25 13:54:00,SystemResetWarning,0836.6,4.99,000.00,028.1,026.7,000.0,036.4,029.7,11.3,0000.0,0007.01,0003.71,0003.18
2023-09-25 13:55:00,SystemResetWarning,0836.6,4.99,000.00,028.1,026.7,000.0,036.4,029.7,11.2,0000.0,0006.59,0003.70,0003.18
2023-09-25 13:56:00,SystemResetWarning,0836.6,5.01,000.00,028.1,026.7,000.0,036.4,029.7,12.2,0000.0,0006.77,0003.72,0003.19
2023-09-25 13:57:00,SystemResetWarning,0836.6,5.01,000.00,028.1,026.7,000.0,036.4,029.7,12.9,0000.0,0006.84,0003.73,0003.19
2023-09-25 13:58:00,SystemResetWarning,0836.6,4.99,000.00,028.1,026.7,000.0,036.4,029.7,12.6,0000.0,0006.70,0003.70,0003.19
2023-09-25 13:59:00,SystemResetWarning,0836.6,4.99,000.00,028.1,026.7,000.0,036.4,029.7,11.6,0000.0,0006.63,0003.69,0003.19
